Other Public Products
Issued by NWS Grand Forks, ND

Home | Current Version | Previous Version | Graphics & Text | Print | Product List | Glossary On
Versions: 1 2 3 4 5 6 7 8 9 10 11 12 13 14 15 16 17 18 19 20 21 22 23 24 25 26 27 28 29 30 31 32 33 34 35 36 37 38 39 40 41 42 43 44 45 46 47 48 49 50
000
FPUS83 KFGF 280431
OPUFGF
PRAIRIE TO PINES WEATHER ROUNDUP
NATIONAL WEATHER SERVICE EASTERN NORTH DAKOTA/GRAND FORKS ND
1100 PM CDT WED AUG 27 2014

 **SATELLITE DATA USED TO AUGMENT SKY COVER AT AUTOMATED STATIONS**
 *****  WEATHER ACROSS EASTERN NORTH DAKOTA  *****

CITY           SKY/WX    TMP DP  RH WIND       PRES   REMARKS
GRAND FORKS    CLEAR     61  57  87 SE6       30.06S
GRAND FORKS AF CLEAR     60  60  99 S6        30.07S
GRAND CITY NWS   N/A     63 N/A N/A S3          N/A
BUXTON           N/A     61  60  97 SE6         N/A
DEVILS LAKE    CLEAR     64  55  72 S9        30.03F
FARGO          CLOUDY    66  59  78 SE7       30.07F
WAHPETON ARPT  MOCLDY    64  59  82 SE5       30.08F
$$

 *****  WEATHER ACROSS CENTRAL AND WESTERN NORTH DAKOTA  *****

CITY           SKY/WX    TMP DP  RH WIND       PRES   REMARKS
JAMESTOWN      CLOUDY    66  61  84 SE8       30.06S
BISMARCK       CLOUDY    63  60  90 S5        30.04F
MINOT          CLEAR     63  57  81 SE7       29.98F
MINOT AFB      CLEAR     62  61  99 S7        29.97F
GARRISON         N/A     65  61  87 S9        30.01F
WILLISTON      CLEAR     70  52  52 S7        29.94F
DICKINSON      PTCLDY    63  60  90 S12       30.02F
HETTINGER      MOCLDY    61  59  93 S5        30.07S
$$

 *****  OTHER OBSERVATIONS NORTHEAST NORTH DAKOTA  *****

CITY           SKY/WX    TMP DP  RH WIND       PRES   REMARKS
WALHALLA         N/A     63  63 100 S8        30.04S
LANGDON        FAIR      55  55 100 S8        30.04F
CAVALIER       FAIR      59  55  88 S6        30.04F
GRAFTON        FAIR      57  57 100 SE6       30.05F
CANDO          FAIR      61  59  94 S8        30.03F
FORT TOTTEN      N/A     62  57  84 S7        29.95S
ROLLA          FAIR      59  59 100 S9        30.03F
RUGBY          FAIR      63  59  88 S9        30.01F
 ***** THE ABOVE OBSERVATIONS ARE NON NWS ARE NOT QUALITY
        CONTROLLED AND MAY MIS-REPORT RAIN FOR SNOW...
$$

 *****  OTHER OBSERVATIONS SOUTHEAST NORTH DAKOTA *****

CITY           SKY/WX    TMP DP  RH WIND       PRES   REMARKS
COOPERSTOWN    NOT AVBL
VALLEY CITY    CLOUDY    66  64  94 SE10      30.07S
OAKES            N/A     64  64 100 E7        30.06S
GWINNER        CLOUDY    66  63  88 CALM      30.08S
SHEYENNE NWR     N/A     64  61  90 E3        29.95S
BUFFALO          N/A     65  58  79 CALM        N/A
WYNDMERE       NOT AVBL
 ***** THE ABOVE OBSERVATIONS ARE NON NWS ARE NOT QUALITY
       CONTROLLED AND MAY MIS-REPORT RAIN FOR SNOW...
$$

  *****  WEATHER ACROSS NORTHERN MINNESOTA  *****

CITY           SKY/WX    TMP DP  RH WIND       PRES   REMARKS
FLAG ISLAND    CLEAR     66  52  59 SE8       30.07F
WARROAD        CLEAR     55  50  82 SE5       30.09F
ROSEAU         CLEAR     55  50  82 S6        30.08F
HALLOCK        CLEAR     55  54  94 SE7       30.06S
THF RVR FALLS  CLEAR     57  52  82 SE5       30.10R
HALSTAD          N/A     58  55  92 SE6         N/A
FOSSTON        CLEAR     57  55  94 S6        30.12S
BAUDETTE       CLEAR     53  51  93 CALM      30.10F
WASKISH        CLEAR     52  52 100 CALM      30.11S
CROOKSTON      CLEAR     57  55  94 SE7       30.09S
$$
  *****  WEATHER ACROSS CENTRAL AND WEST MINNESOTA  *****

CITY           SKY/WX    TMP DP  RH WIND       PRES   REMARKS
BEMIDJI        CLEAR     58  56  91 SW3       30.12S
PARK RAPIDS    CLEAR     59  56  89 SE3       30.13S
WADENA         CLOUDY    57  57 100 CALM      30.13S
DETROIT LAKES  PTCLDY    61  59  94 SE3       30.13S
MOORHEAD       MOCLDY    64  63  94 SE3       30.09F
FERGUS FALLS   CLOUDY    66  57  72 SE6       30.09F
ELBOW LAKE     MOCLDY    65  61  86 E7        30.10F
MORRIS MN      PTCLDY    64  61  88 E9        30.09F
STAPLES        MOCLDY    59  57  94 CALM      30.14S
WHEATON        PTCLDY    61  57  88 SE8       30.09F
$$
  *****  WEATHER ELSEWHERE ACROSS MINNESOTA  *****

CITY           SKY/WX    TMP DP  RH WIND       PRES   REMARKS
DULUTH         PTCLDY    60  53  77 CALM      30.14F
INTRNTL FALLS  CLEAR     48  48 100 CALM      30.11F
ELY            PTCLDY    50  46  87 CALM      30.14S
CLOQUET        CLEAR     54  52  94 CALM      30.15R
BRAINERD       MOCLDY    57  56  96 S3        30.15R
HIBBING        FOG       49  47  93 NW3       30.14S VSB 3/4
ALEXANDRIA     PTCLDY    64  59  83 SE7       30.15R
SAINT CLOUD    CLEAR     64  57  78 E3        30.14R
MINNEAPOLIS    MOCLDY    68  57  68 VRB7      30.14R
$$

  *****  WEATHER ACROSS SOUTH DAKOTA  *****

CITY           SKY/WX    TMP DP  RH WIND       PRES   REMARKS
SIOUX FALLS    CLOUDY    69  65  86 SE9       30.08F
BROOKINGS      NOT AVBL
WATERTOWN      PTCLDY    65  62  90 SE5       30.08F
HURON          MOCLDY    68  64  87 SE7       30.04F
SISSETON         N/A     63  61  93 S5        30.07F
ABERDEEN       MOCLDY    64  63  96 SE5       30.05F
MITCHELL       LGT RAIN  68  67  96 SE8       30.06S
PIERRE         LGT RAIN  68  66  93 SE8       30.02S
MOBRIDGE       CLOUDY    66  64  93 E7        30.00F
RAPID CITY     CLOUDY    63  61  93 NW6       30.06F
$$

  *****  SOME WEATHER IN NEARBY STATES *****

CITY           SKY/WX    TMP DP  RH WIND       PRES   REMARKS
GLASGOW MT     CLEAR     67  52  58 CALM      29.92S
GREAT FALLS MT CLEAR     66  47  50 S8        30.02R
CHEYENNE WY    PTCLDY    56  47  71 NW10      30.20S
SCOTTSBLUFF NE CLOUDY    63  62  97 CALM      30.07S
OMAHA NE       CLOUDY    72  68  87 E6        30.07S
DES MOINES IA  CLOUDY    73  68  84 E3        30.09F
DAVENPORT IA   PTCLDY    63  60  90 NE6       30.12S
CHICAGO IL     PTCLDY    68  59  73 E8        30.13S
EAU CLAIRE WI  CLEAR     59  56  89 NE3       30.15R
LA CROSSE WI   CLEAR     65  61  87 SE3       30.14R
$$

  *****  SOME NATIONAL WEATHER *****

CITY           SKY/WX    TMP DP  RH WIND       PRES   REMARKS
LA GUARDIA NY  MOCLDY    78  66  66 CALM      29.86F
RALEIGH NC     PTCLDY    65  61  87 CALM      29.99F
ATLANTA GA     PTCLDY    78  61  55 CALM      30.06S
NEW ORLEANS LA MOCLDY    82  74  76 SE5       29.99S
OKLAHOMA CITY  MOCLDY    81  65  58 SE8       30.02S
ALBUQUERQUE NM PTCLDY    71  53  52 CALM      30.23R
SALT LAKE CITY MOCLDY    68  50  52 SE9       30.21R
LOS ANGELES CA CLEAR     73  59  61 W10       29.99R
BOISE ID       CLEAR     75  37  25 SE5       30.05R
SEATTLE WA     PTCLDY    67  58  72 S6        30.03R
$$

*** WEATHER ACROSS MANITOBA...SASKATCHEWAN AND ONTARIO ***
                ***ONTARIO***

CITY           SKY/WX    TMP DP  RH WIND       PRES   REMARKS
GERALDTON      CLEAR     45  45 100 CALM      30.13S
THUNDER BAY    CLEAR     50  48  93 W3        30.14S
SIOUX LOOKOUT  CLEAR     50  48  93 S5        30.11S
TORONTO        CLEAR     59  50  72 NW10      30.08R
BIG TROUT LK   NOT AVBL
PICKLE LAKE    NOT AVBL
DRYDEN         CLEAR     57  50  77 S7        30.11S
KENORA         CLEAR     61  52  72 S5        30.09F
$$
                *** MANITOBA***

CITY           SKY/WX    TMP DP  RH WIND       PRES   REMARKS
BRANDON        CLEAR     57  54  88 SE6       29.98F
DAUPHIN        CLEAR     66  54  63 SW10G21   29.90F
ISLAND LAKE    PTCLDY    68  54  60 S6        29.86F
PILOT MOUND      N/A     55  54  94 SE8         N/A
THE PAS        LGT RAIN  66  61  82 W14G20    29.80
THOMPSON       MOCLDY    64  61  88 SW6       29.68F
WINNIPEG       CLEAR     63  52  67 S10G17    30.02F
LYNN LAKE      PTCLDY    59  57  94 MISG      29.68R
CHURCHILL      MOCLDY    61  55  82 S12       29.56F
GILLAM         MOCLDY    64  57  77 S12       29.66F
$$
                ***SASKATCHEWAN***

CITY           SKY/WX    TMP DP  RH WIND       PRES   REMARKS
ESTEVAN        PTCLDY    64  57  77 SE7       29.93F
KINDERSLEY     PTCLDY    61  54  77 NE8       29.87S
LLOYDMINSTER   PTCLDY    61  54  77 N2        29.86F
PRINCE ALBERT  PTCLDY    59  57  94 SW2       29.82R
REGINA         CLEAR     64  57  77 SE9       29.85F


USA.gov is the U.S. government's official web portal to all federal, state and local government web resources and services.